AirNav   Jet Aviation Boston
 
 1653 users online  

T05 Charles R Johnson Airport
Port Mansfield, Texas, USA

GOING TO PORT MANSFIELD?


FAA INFORMATION EFFECTIVE 19 JULY 2018

Location

FAA Identifier: T05
Lat/Long: 26-33-36.5600N / 097-26-21.3000W
26-33.609333N / 097-26.355000W
26.5601556 / -97.4392500
(estimated)
Elevation: 10 ft. / 3 m (estimated)
Variation: 07E (1985)
From city: 1 mile NW of PORT MANSFIELD, TX
Time zone: UTC -5 (UTC -6 during Standard Time)
Zip code: 78598

Airport Operations

Airport use: Open to the public
Activation date: 06/1958
Control tower: no
ARTCC: HOUSTON CENTER
FSS: SAN ANGELO FLIGHT SERVICE STATION
NOTAMs facility: SJT (NOTAM-D service available)
Attendance: UNATNDD
HARBOR SUPERINTENDENT'S OFC ATNDD 0800-1650.
Wind indicator: lighted
Segmented circle: yes
Lights: MIRL RY 12/30 PRESET LOW INTST; TO INCR INTST ACTVT - CTAF.
Beacon: white-green (lighted land airport)
Operates sunset to sunrise.
Landing fee: no, FEE FOR OVERNIGHT TIE DOWN.

Airport Communications

CTAF: 122.9

Nearby radio navigation aids

VOR radial/distance  VOR name  Freq  Var
HRLr025/22.9HARLINGEN VOR/DME109.2005E
BROr346/38.3BROWNSVILLE VORTAC116.3009E

Airport Services

Fuel available: 100LL
FOR FUEL CALL 956-944-2325/2233 DURG NORMAL BUSINESS HRS.
Parking: tiedowns
Airframe service: NONE
Powerplant service: NONE
Bottled oxygen: NONE
Bulk oxygen: NONE

Runway Information

Runway 12/30

Dimensions: 3200 x 50 ft. / 975 x 15 m
Surface: asphalt, in good condition
Weight bearing capacity: 
Single wheel: 21.0
Runway edge lights: medium intensity
RUNWAY 12  RUNWAY 30
Latitude: 26-33.758333N26-33.460667N
Longitude: 097-26.597667W097-26.112833W
Elevation: 9.3 ft.9.6 ft.
Traffic pattern: leftleft
Runway heading: 117 magnetic, 124 true297 magnetic, 304 true
Markings: basic, in good conditionbasic, in good condition
Obstructions: 30 ft. pline, marked, 1460 ft. from runway, 42:1 slope to clear30 ft. pline, 1250 ft. from runway, 34:1 slope to clear

Airport Ownership and Management from official FAA records

Ownership: Publicly-owned
Owner: WILLACY COUNTY NAV DIST
400 W HIDALGO, STE 200
RAYMONDVILLE, TX 78580
Phone 956-689-3332
Manager: FRANK VASQUEZ
818 MANSFIELD DR. UNIT 78
PORT MANSFIELD, TX 78598
Phone 956-944-2325

Airport Operational Statistics

Aircraft operations: 100/year *
100% transient general aviation
* for 12-month period ending 11 January 2017

Additional Remarks

DEER ON & INVOF ARPT.
FOR CD CTC CRP APCH AT 361-299-4230.

Instrument Procedures

There are no published instrument procedures at T05.

Some nearby airports with instrument procedures:

KHRL - Valley International Airport (23 nm SW)
KPIL - Port Isabel-Cameron County Airport (24 nm S)
KTXW - Mid Valley Airport (37 nm SW)
KEBG - South Texas International Airport at Edinburg (37 nm W)
KBRO - Brownsville/South Padre Island International Airport (39 nm S)
 
Loc | Ops | Rwys | IFR | FBO | Links
Com | Nav | Svcs | Stats | Notes


 
Area around T05 (Charles R Johnson Airport)
 
Road maps at: MapQuest Bing Google
 
Aerial photo
WARNING: Photo may not be current or correct
Aerial photo of T05 (Charles R Johnson Airport)
Do you have a better or more recent aerial photo of Charles R Johnson Airport that you would like to share? If so, please send us your photo.

 
Sectional chart

 
Airport distance calculator
Flying to Charles R Johnson Airport? Find the distance to fly.

From to T05

Sunrise and sunset
Times for 19-Jul-2018
 Local
(UTC-5)
 Zulu
(UTC)
Morning civil twilight06:2411:24
Sunrise06:4911:49
Sunset20:2301:23
Evening civil twilight20:4801:48

Current date and time
Zulu (UTC)  19-Jul-2018 15:01:44
Local (UTC-5)  19-Jul-2018 10:01:44
 
METAR
KHRL 
23nm SW 
191452Z 18018G23KT 10SM CLR 31/25 A2993 RMK AO2 SLP136 T03110250 50005
KPIL 
24nm S 
191453Z AUTO 18015G20KT 9SM FEW023 31/23 A2994 RMK AO2 SLP139 T03110233 51007
KEBG 
38nm W 
191455Z AUTO 17015G20KT 10SM SCT020 31/23 A2995 RMK AO2 T03130232
KBRO 
40nm S 
191453Z 18019G24KT 10SM CLR 32/25 A2995 RMK AO2 SLP141 T03220250 51006
TAF
KHRL 
23nm SW 
191129Z 1912/2012 16009KT P6SM SKC FM191500 18018G24KT P6SM FEW250 FM200200 15013KT P6SM SCT250 FM200900 16007KT P6SM BKN250
NOTAMs
Click for the latest NOTAMs
NOTAMs are issued by the DoD/FAA and will open in a separate window not controlled by AirNav.

 

 
 

FBO, Fuel Providers, and Aircraft Ground Support

  
 Business Name 
 
 Contact 
 
 Services / Description 
 
Fuel Prices
 
Comments
  
Willacy County Navigation District 956-944-2325
no information available

If you are affiliated with Willacy County Navigation District and would like to show here your services, contact info, web link, logo, and more, click here
100LL
RA $4.60 
 Updated 10-Jul-2018
 
   1 read write
RA=Restricted
Update Fuel Prices
 

Would you like to see your business listed on this page?

 If your business provides an interesting product or service to pilots, flight crews, aircraft, or users of the Charles R Johnson Airport, you should consider listing it here.  To start the listing process, click on the button below
 
Add a business
 

Other Pages about Charles R Johnson Airport

Update a link
 
Copyright © AirNav, LLC. All rights reserved. Privacy Policy  Contact